TimeMST,TemperatureF,Dew PointF,Humidity,Sea Level PressureIn,VisibilityMPH,Wind Direction,Wind SpeedMPH,Gust SpeedMPH,PrecipitationIn,Events,Conditions,WindDirDegrees,DateUTC
12:53 AM,57.0,12.9,18,29.92,10.0,ESE,5.8,-,N/A,,Clear,120,2013-10-20 07:53:00
1:53 AM,54.0,12.0,19,29.92,10.0,SE,8.1,-,N/A,,Clear,130,2013-10-20 08:53:00
2:53 AM,52.0,14.0,22,29.91,10.0,SE,5.8,-,N/A,,Clear,140,2013-10-20 09:53:00
3:53 AM,52.0,12.9,21,29.91,10.0,SE,10.4,-,N/A,,Clear,140,2013-10-20 10:53:00
4:53 AM,51.1,12.9,22,29.91,10.0,SE,8.1,-,N/A,,Clear,140,2013-10-20 11:53:00
5:53 AM,51.1,14.0,23,29.92,10.0,SSE,11.5,-,N/A,,Clear,150,2013-10-20 12:53:00
6:53 AM,51.1,15.1,24,29.94,10.0,SSE,6.9,-,N/A,,Clear,150,2013-10-20 13:53:00
7:53 AM,55.9,14.0,19,29.95,10.0,SSE,10.4,-,N/A,,Clear,150,2013-10-20 14:53:00
8:53 AM,63.0,14.0,15,29.95,10.0,South,9.2,-,N/A,,Clear,170,2013-10-20 15:53:00
9:53 AM,69.1,15.1,13,29.93,10.0,South,4.6,-,N/A,,Clear,190,2013-10-20 16:53:00
10:53 AM,75.0,12.9,9,29.91,10.0,Calm,Calm,-,N/A,,Clear,0,2013-10-20 17:53:00
11:53 AM,80.1,10.0,7,29.88,10.0,NNW,4.6,-,N/A,,Clear,340,2013-10-20 18:53:00
12:53 PM,82.0,12.0,7,29.85,10.0,Calm,Calm,-,N/A,,Clear,0,2013-10-20 19:53:00
1:53 PM,82.9,10.9,7,29.83,10.0,WNW,4.6,-,N/A,,Clear,300,2013-10-20 20:53:00
2:53 PM,84.0,9.0,6,29.82,10.0,NNW,5.8,-,N/A,,Clear,330,2013-10-20 21:53:00
3:53 PM,82.9,9.0,6,29.81,10.0,West,8.1,18.4,N/A,,Clear,280,2013-10-20 22:53:00
4:53 PM,82.0,8.1,6,29.81,10.0,West,10.4,-,N/A,,Clear,280,2013-10-20 23:53:00
5:53 PM,79.0,12.9,8,29.82,10.0,North,8.1,-,N/A,,Clear,350,2013-10-21 00:53:00
6:53 PM,73.9,12.0,9,29.84,10.0,NNW,8.1,-,N/A,,Clear,340,2013-10-21 01:53:00
7:53 PM,69.1,14.0,12,29.86,10.0,WSW,5.8,-,N/A,,Clear,250,2013-10-21 02:53:00
8:53 PM,66.0,14.0,13,29.87,10.0,South,3.5,-,N/A,,Clear,170,2013-10-21 03:53:00
9:53 PM,63.0,16.0,16,29.89,10.0,WSW,4.6,-,N/A,,Clear,240,2013-10-21 04:53:00
10:53 PM,62.1,14.0,15,29.88,10.0,SE,9.2,-,N/A,,Clear,130,2013-10-21 05:53:00
11:53 PM,57.9,12.9,17,29.88,10.0,South,6.9,-,N/A,,Clear,180,2013-10-21 06:53:00